| time (UTC) | temp F | wind direction | speed MPH | gust MPH | rain 1hr in | rain 24hr in | rain mn in | humidity % | barometer mb |
| 20260507164011 | 49 | 296 | 0.0 | 5.0 | 0.00 | 0.00 | 0.23 | 98 | 1002.0 |
| 20260507163511 | 49 | 142 | 2.0 | 6.0 | 0.00 | 0.00 | 0.23 | 98 | 1002.0 |
| 20260507163012 | 50 | 257 | 4.0 | 4.0 | 0.02 | 0.00 | 0.23 | 98 | 1002.0 |
| 20260507162511 | 50 | 193 | 3.0 | 5.0 | 0.02 | 0.00 | 0.23 | 98 | 1002.0 |
| 20260507162011 | 50 | 69 | 0.0 | 6.0 | 0.00 | 0.00 | 0.22 | 99 | 1001.0 |
| 20260507161512 | 49 | 122 | 3.0 | 6.0 | 0.00 | 0.00 | 0.22 | 98 | 1001.0 |
| 20260507161012 | 49 | 153 | 5.0 | 8.0 | 0.00 | 0.00 | 0.22 | 98 | 1002.0 |
| 20260507160512 | 50 | 113 | 2.0 | 4.0 | 0.02 | 0.00 | 0.22 | 98 | 1003.0 |
| 20260507160012 | 50 | 165 | 2.0 | 6.0 | 0.05 | 0.00 | 0.22 | 98 | 1002.0 |
| 20260507155513 | 50 | 144 | 4.0 | 7.0 | 0.02 | 0.00 | 0.22 | 98 | 1003.0 |
| 20260507155017 | 50 | 225 | 3.0 | 7.0 | 0.02 | 0.00 | 0.22 | 98 | 1002.0 |
| 20260507154512 | 50 | 225 | 3.0 | 6.0 | 0.02 | 0.00 | 0.22 | 98 | 1002.0 |
| 20260507154012 | 50 | 137 | 5.0 | 9.0 | 0.02 | 0.00 | 0.21 | 98 | 1002.0 |
| 20260507153512 | 50 | 134 | 4.0 | 9.0 | 0.00 | 0.00 | 0.21 | 98 | 1002.0 |
| 20260507153012 | 50 | 188 | 2.0 | 7.0 | 0.02 | 0.00 | 0.21 | 98 | 1003.0 |
| 20260507152511 | 50 | 359 | 2.0 | 6.0 | 0.07 | 0.00 | 0.21 | 98 | 1003.0 |
| 20260507152012 | 50 | 113 | 2.0 | 9.0 | 0.07 | 0.00 | 0.21 | 98 | 1003.0 |
| 20260507151512 | 50 | 126 | 3.0 | 10.0 | 0.05 | 0.00 | 0.20 | 98 | 1003.0 |
| 20260507151013 | 51 | 230 | 6.0 | 7.0 | 0.02 | 0.00 | 0.19 | 98 | 1003.0 |
| 20260507150511 | 51 | 165 | 2.0 | 10.0 | 0.09 | 0.00 | 0.19 | 97 | 1003.0 |
| 20260507145544 | 51 | 187 | 7.0 | 11.0 | 0.17 | 0.00 | 0.17 | 97 | 1003.0 |
| 20260507145011 | 51 | 151 | 3.0 | 11.0 | 0.12 | 0.00 | 0.15 | 97 | 1003.0 |
| 20260507144512 | 51 | 273 | 2.0 | 10.0 | 0.12 | 0.00 | 0.14 | 97 | 1003.0 |
| 20260507144011 | 51 | 125 | 10.0 | 13.0 | 0.19 | 0.00 | 0.13 | 97 | 1003.0 |
| 20260507143518 | 51 | 92 | 5.0 | 18.0 | 0.17 | 0.00 | 0.12 | 97 | 1003.0 |
| 20260507143012 | 51 | 114 | 2.0 | 10.0 | 0.07 | 0.00 | 0.10 | 97 | 1003.0 |
| 20260507142512 | 52 | 168 | 11.0 | 15.0 | 0.07 | 0.00 | 0.09 | 97 | 1003.0 |
| 20260507142012 | 52 | 167 | 8.0 | 15.0 | 0.07 | 0.00 | 0.08 | 98 | 1002.0 |
| 20260507141511 | 51 | 155 | 8.0 | 11.0 | 0.05 | 0.00 | 0.08 | 98 | 1003.0 |
| 20260507141012 | 51 | 219 | 10.0 | 18.0 | 0.07 | 0.00 | 0.07 | 98 | 1003.0 |
| 20260507140511 | 52 | 186 | 6.0 | 12.0 | 0.05 | 0.00 | 0.07 | 98 | 1003.0 |
| 20260507140012 | 52 | 178 | 3.0 | 9.0 | 0.00 | 0.00 | 0.06 | 98 | 1003.0 |
| 20260507135512 | 52 | 192 | 7.0 | 13.0 | 0.00 | 0.00 | 0.06 | 98 | 1003.0 |
| 20260507135013 | 52 | 139 | 12.0 | 13.0 | 0.00 | 0.00 | 0.06 | 98 | 1003.0 |
| 20260507134513 | 52 | 161 | 8.0 | 16.0 | 0.00 | 0.00 | 0.06 | 98 | 1003.0 |
| 20260507134011 | 52 | 213 | 6.0 | 18.0 | 0.00 | 0.00 | 0.06 | 98 | 1003.0 |
| 20260507133512 | 52 | 147 | 12.0 | 17.0 | 0.00 | 0.00 | 0.06 | 98 | 1002.0 |
| 20260507133012 | 52 | 150 | 7.0 | 11.0 | 0.00 | 0.00 | 0.06 | 98 | 1003.0 |
| 20260507132512 | 52 | 201 | 7.0 | 14.0 | 0.02 | 0.00 | 0.06 | 98 | 1003.0 |
| 20260507132014 | 52 | 221 | 2.0 | 18.0 | 0.02 | 0.00 | 0.06 | 98 | 1003.0 |
| 20260507131512 | 52 | 220 | 6.0 | 14.0 | 0.00 | 0.00 | 0.06 | 98 | 1003.0 |
| 20260507131012 | 52 | 144 | 3.0 | 10.0 | 0.00 | 0.00 | 0.06 | 98 | 1003.0 |
| 20260507130513 | 52 | 239 | 10.0 | 11.0 | 0.00 | 0.00 | 0.06 | 98 | 1003.0 |
| 20260507130013 | 52 | 157 | 10.0 | 14.0 | 0.00 | 0.00 | 0.06 | 98 | 1003.0 |
| 20260507125511 | 52 | 173 | 6.0 | 19.0 | 0.00 | 0.00 | 0.06 | 98 | 1003.0 |
| 20260507125012 | 52 | 142 | 11.0 | 21.0 | 0.00 | 0.00 | 0.06 | 98 | 1003.0 |
| 20260507124511 | 52 | 155 | 8.0 | 14.0 | 0.00 | 0.00 | 0.06 | 98 | 1003.0 |
| 20260507124012 | 52 | 205 | 6.0 | 11.0 | 0.00 | 0.00 | 0.06 | 97 | 1003.0 |
| 20260507123512 | 52 | 177 | 9.0 | 15.0 | 0.00 | 0.00 | 0.06 | 97 | 1003.0 |
| 20260507123012 | 52 | 146 | 8.0 | 15.0 | 0.00 | 0.00 | 0.06 | 97 | 1003.0 |
| 20260507122512 | 52 | 186 | 7.0 | 17.0 | 0.00 | 0.00 | 0.06 | 97 | 1003.0 |
| 20260507122011 | 52 | 157 | 8.0 | 20.0 | 0.02 | 0.00 | 0.06 | 97 | 1003.0 |
| 20260507121040 | 52 | 227 | 13.0 | 22.0 | 0.02 | 0.00 | 0.05 | 97 | 1003.0 |
| 20260507120511 | 52 | 175 | 8.0 | 21.0 | 0.00 | 0.00 | 0.05 | 96 | 1003.0 |
| 20260507120011 | 52 | 164 | 15.0 | 22.0 | 0.00 | 0.00 | 0.05 | 96 | 1003.0 |
| 20260507115512 | 53 | 159 | 10.0 | 18.0 | 0.00 | 0.00 | 0.05 | 96 | 1003.0 |
| 20260507115012 | 53 | 165 | 13.0 | 25.0 | 0.00 | 0.00 | 0.05 | 96 | 1002.0 |
| 20260507114512 | 53 | 171 | 11.0 | 24.0 | 0.00 | 0.00 | 0.05 | 97 | 1002.0 |
| 20260507114012 | 53 | 154 | 10.0 | 21.0 | 0.00 | 0.00 | 0.05 | 97 | 1002.0 |
| 20260507113512 | 53 | 166 | 11.0 | 19.0 | 0.00 | 0.00 | 0.05 | 97 | 1002.0 |
| 20260507113012 | 53 | 154 | 16.0 | 22.0 | 0.00 | 0.00 | 0.05 | 97 | 1002.0 |
| 20260507112512 | 53 | 140 | 10.0 | 21.0 | 0.00 | 0.00 | 0.05 | 97 | 1003.0 |
| 20260507112011 | 53 | 163 | 6.0 | 14.0 | 0.00 | 0.00 | 0.05 | 97 | 1003.0 |
| 20260507111512 | 52 | 161 | 13.0 | 14.0 | 0.00 | 0.00 | 0.05 | 96 | 1003.0 |
| 20260507111011 | 53 | 187 | 8.0 | 14.0 | 0.02 | 0.00 | 0.05 | 95 | 1003.0 |
| 20260507110511 | 53 | 194 | 9.0 | 12.0 | 0.02 | 0.00 | 0.05 | 94 | 1003.0 |
| 20260507110011 | 53 | 160 | 7.0 | 15.0 | 0.00 | 0.00 | 0.04 | 93 | 1003.0 |
| 20260507105513 | 54 | 168 | 3.0 | 15.0 | 0.00 | 0.00 | 0.04 | 94 | 1003.0 |
| 20260507105011 | 54 | 206 | 5.0 | 22.0 | 0.00 | 0.00 | 0.04 | 94 | 1003.0 |
| 20260507104511 | 54 | 185 | 8.0 | 22.0 | 0.00 | 0.00 | 0.04 | 94 | 1003.0 |
| 20260507104011 | 54 | 163 | 14.0 | 24.0 | 0.00 | 0.00 | 0.04 | 95 | 1003.0 |
| 20260507103511 | 54 | 131 | 15.0 | 24.0 | 0.00 | 0.00 | 0.04 | 95 | 1003.0 |
| 20260507103011 | 53 | 156 | 14.0 | 23.0 | 0.02 | 0.00 | 0.04 | 95 | 1002.0 |
| 20260507102511 | 53 | 153 | 17.0 | 24.0 | 0.02 | 0.00 | 0.04 | 95 | 1002.0 |
| 20260507102012 | 53 | 165 | 7.0 | 30.0 | 0.00 | 0.00 | 0.04 | 95 | 1003.0 |
| 20260507101511 | 53 | 154 | 12.0 | 25.0 | 0.00 | 0.00 | 0.04 | 95 | 1002.0 |
| 20260507101015 | 53 | 142 | 17.0 | 26.0 | 0.00 | 0.00 | 0.04 | 96 | 1002.0 |
| 20260507100511 | 53 | 158 | 13.0 | 24.0 | 0.00 | 0.00 | 0.04 | 96 | 1002.0 |
| 20260507100011 | 53 | 151 | 12.0 | 26.0 | 0.00 | 0.00 | 0.04 | 96 | 1002.0 |
| 20260507095511 | 52 | 154 | 13.0 | 19.0 | 0.00 | 0.00 | 0.04 | 95 | 1002.0 |
| 20260507095011 | 52 | 146 | 10.0 | 22.0 | 0.00 | 0.00 | 0.04 | 95 | 1002.0 |
| 20260507094100 | 53 | 147 | 10.0 | 31.0 | 0.00 | 0.00 | 0.04 | 95 | 1003.0 |
| 20260507093512 | 53 | 145 | 9.0 | 27.0 | 0.02 | 0.00 | 0.04 | 95 | 1003.0 |
| 20260507093011 | 52 | 149 | 16.0 | 28.0 | 0.02 | 0.00 | 0.04 | 95 | 1003.0 |
| 20260507092512 | 52 | 150 | 13.0 | 25.0 | 0.00 | 0.00 | 0.04 | 95 | 1003.0 |
| 20260507092012 | 52 | 169 | 14.0 | 25.0 | 0.00 | 0.00 | 0.04 | 94 | 1003.0 |
| 20260507091511 | 52 | 157 | 9.0 | 23.0 | 0.00 | 0.00 | 0.04 | 93 | 1003.0 |
| 20260507091011 | 53 | 144 | 10.0 | 24.0 | 0.00 | 0.00 | 0.04 | 93 | 1003.0 |
| 20260507090512 | 53 | 146 | 13.0 | 18.0 | 0.00 | 0.00 | 0.04 | 92 | 1003.0 |
| 20260507090012 | 53 | 139 | 15.0 | 26.0 | 0.00 | 0.00 | 0.04 | 92 | 1003.0 |
| 20260507085511 | 53 | 160 | 20.0 | 25.0 | 0.00 | 0.00 | 0.04 | 91 | 1003.0 |
| 20260507085011 | 53 | 153 | 15.0 | 21.0 | 0.00 | 0.00 | 0.04 | 91 | 1003.0 |
| 20260507084512 | 53 | 163 | 14.0 | 23.0 | 0.00 | 0.00 | 0.04 | 91 | 1003.0 |
| 20260507084012 | 53 | 157 | 13.0 | 26.0 | 0.00 | 0.00 | 0.04 | 91 | 1004.0 |
| 20260507083513 | 53 | 155 | 18.0 | 24.0 | 0.00 | 0.00 | 0.04 | 92 | 1003.0 |
| 20260507083011 | 53 | 152 | 13.0 | 28.0 | 0.00 | 0.00 | 0.04 | 92 | 1004.0 |
| 20260507082512 | 53 | 156 | 10.0 | 24.0 | 0.00 | 0.00 | 0.04 | 92 | 1004.0 |
| 20260507082011 | 53 | 123 | 15.0 | 21.0 | 0.00 | 0.00 | 0.04 | 92 | 1004.0 |
| 20260507081512 | 53 | 158 | 10.0 | 28.0 | 0.00 | 0.00 | 0.04 | 92 | 1004.0 |
| 20260507081011 | 53 | 171 | 14.0 | 24.0 | 0.00 | 0.00 | 0.04 | 92 | 1004.0 |
| 20260507080512 | 53 | 164 | 13.0 | 23.0 | 0.00 | 0.00 | 0.04 | 92 | 1004.0 |
| 20260507080011 | 53 | 158 | 16.0 | 28.0 | 0.00 | 0.00 | 0.04 | 92 | 1004.0 |
| 20260507075513 | 53 | 139 | 10.0 | 24.0 | 0.00 | 0.00 | 0.04 | 92 | 1004.0 |
| 20260507075012 | 53 | 155 | 15.0 | 29.0 | 0.00 | 0.00 | 0.04 | 93 | 1004.0 |
| 20260507074512 | 53 | 136 | 17.0 | 31.0 | 0.00 | 0.00 | 0.04 | 93 | 1005.0 |
| 20260507074012 | 53 | 152 | 14.0 | 28.0 | 0.00 | 0.00 | 0.04 | 93 | 1004.0 |
| 20260507073511 | 53 | 161 | 14.0 | 25.0 | 0.00 | 0.00 | 0.04 | 93 | 1005.0 |
| 20260507073012 | 53 | 135 | 13.0 | 19.0 | 0.00 | 0.00 | 0.04 | 93 | 1005.0 |
| 20260507072513 | 53 | 156 | 16.0 | 25.0 | 0.00 | 0.00 | 0.04 | 93 | 1005.0 |
| 20260507072013 | 53 | 149 | 24.0 | 25.0 | 0.00 | 0.00 | 0.04 | 94 | 1005.0 |
| 20260507071512 | 53 | 132 | 7.0 | 31.0 | 0.02 | 0.00 | 0.04 | 94 | 1005.0 |
| 20260507071012 | 53 | 130 | 13.0 | 24.0 | 0.00 | 0.00 | 0.03 | 95 | 1005.0 |
| 20260507070512 | 53 | 143 | 11.0 | 17.0 | 0.00 | 0.00 | 0.03 | 95 | 1005.0 |
| 20260507070013 | 53 | 153 | 14.0 | 21.0 | 0.00 | 0.00 | 0.03 | 95 | 1005.0 |
| 20260507065512 | 53 | 136 | 11.0 | 19.0 | 0.00 | 0.00 | 0.03 | 94 | 1005.0 |
| 20260507065012 | 53 | 145 | 9.0 | 22.0 | 0.00 | 0.00 | 0.03 | 94 | 1006.0 |
| 20260507064512 | 53 | 153 | 16.0 | 20.0 | 0.02 | 0.00 | 0.03 | 94 | 1006.0 |
| 20260507064011 | 53 | 140 | 11.0 | 21.0 | 0.02 | 0.00 | 0.03 | 94 | 1006.0 |
| 20260507063511 | 53 | 127 | 11.0 | 18.0 | 0.00 | 0.00 | 0.03 | 94 | 1006.0 |
| 20260507063012 | 53 | 153 | 10.0 | 26.0 | 0.00 | 0.00 | 0.03 | 94 | 1006.0 |
| 20260507062512 | 53 | 155 | 7.0 | 21.0 | 0.02 | 0.00 | 0.03 | 93 | 1006.0 |
| 20260507062013 | 53 | 154 | 16.0 | 24.0 | 0.02 | 0.00 | 0.03 | 93 | 1007.0 |
| 20260507061512 | 53 | 160 | 20.0 | 24.0 | 0.07 | 0.00 | 0.02 | 92 | 1007.0 |
| 20260507061011 | 53 | 132 | 10.0 | 21.0 | 0.05 | 0.00 | 0.02 | 91 | 1007.0 |
| 20260507060513 | 53 | 140 | 11.0 | 18.0 | 0.05 | 0.00 | 0.01 | 91 | 1007.0 |
| 20260507060011 | 53 | 118 | 12.0 | 18.0 | 0.02 | 0.00 | 0.00 | 90 | 1007.0 |
| 20260507055511 | 53 | 142 | 12.0 | 20.0 | 0.00 | 0.00 | 0.00 | 90 | 1007.0 |
| 20260507055011 | 54 | 165 | 15.0 | 26.0 | 0.00 | 0.00 | 0.00 | 89 | 1007.0 |
| 20260507054513 | 54 | 126 | 10.0 | 23.0 | 0.00 | 0.00 | 0.00 | 89 | 1007.0 |
| 20260507054011 | 54 | 143 | 12.0 | 26.0 | 0.00 | 0.00 | 0.00 | 88 | 1007.0 |
| 20260507053512 | 54 | 147 | 12.0 | 24.0 | 0.00 | 0.00 | 0.00 | 88 | 1007.0 |
| 20260507053011 | 54 | 141 | 12.0 | 26.0 | 0.00 | 0.00 | 0.00 | 87 | 1008.0 |
| 20260507052512 | 54 | 132 | 9.0 | 24.0 | 0.00 | 0.00 | 0.00 | 86 | 1008.0 |
| 20260507052011 | 55 | 157 | 16.0 | 17.0 | 0.00 | 0.00 | 0.00 | 86 | 1008.0 |
| 20260507051511 | 55 | 106 | 8.0 | 22.0 | 0.00 | 0.00 | 0.00 | 86 | 1008.0 |
| 20260507051013 | 55 | 185 | 8.0 | 21.0 | 0.00 | 0.00 | 0.00 | 87 | 1008.0 |
| 20260507050512 | 54 | 147 | 13.0 | 24.0 | 0.00 | 0.00 | 0.00 | 88 | 1008.0 |
| 20260507050015 | 54 | 167 | 9.0 | 17.0 | 0.00 | 0.00 | 0.00 | 88 | 1008.0 |
| 20260507045511 | 54 | 140 | 12.0 | 21.0 | 0.00 | 0.00 | 0.00 | 88 | 1008.0 |
| 20260507045012 | 54 | 142 | 11.0 | 18.0 | 0.00 | 0.00 | 0.00 | 89 | 1008.0 |
| 20260507044511 | 54 | 167 | 12.0 | 17.0 | 0.00 | 0.00 | 0.00 | 89 | 1008.0 |
| 20260507044011 | 54 | 152 | 14.0 | 25.0 | 0.00 | 0.00 | 0.00 | 88 | 1008.0 |
| 20260507043511 | 54 | 144 | 12.0 | 21.0 | 0.00 | 0.00 | 0.00 | 88 | 1009.0 |
| 20260507043011 | 54 | 155 | 10.0 | 24.0 | 0.00 | 0.00 | 0.00 | 87 | 1009.0 |
| 20260507042511 | 55 | 161 | 8.0 | 18.0 | 0.00 | 0.00 | 0.00 | 87 | 1009.0 |
| 20260507042011 | 55 | 156 | 5.0 | 14.0 | 0.00 | 0.00 | 0.00 | 86 | 1009.0 |
| 20260507041512 | 55 | 146 | 10.0 | 19.0 | 0.00 | 0.00 | 0.00 | 86 | 1009.0 |
| 20260507041012 | 55 | 147 | 14.0 | 22.0 | 0.00 | 0.00 | 0.00 | 86 | 1009.0 |
| 20260507040511 | 55 | 159 | 17.0 | 21.0 | 0.00 | 0.00 | 0.00 | 86 | 1009.0 |
| 20260507040014 | 55 | 163 | 14.0 | 20.0 | 0.00 | 0.00 | 0.00 | 86 | 1009.0 |
| 20260507035512 | 55 | 133 | 9.0 | 21.0 | 0.00 | 0.00 | 0.00 | 86 | 1009.0 |
| 20260507035011 | 56 | 159 | 12.0 | 19.0 | 0.00 | 0.00 | 0.00 | 86 | 1010.0 |
| 20260507034511 | 56 | 153 | 11.0 | 19.0 | 0.00 | 0.00 | 0.00 | 86 | 1009.0 |
| 20260507034011 | 56 | 143 | 10.0 | 21.0 | 0.00 | 0.00 | 0.00 | 86 | 1009.0 |
| 20260507033511 | 55 | 147 | 12.0 | 22.0 | 0.00 | 0.00 | 0.00 | 86 | 1009.0 |
| 20260507033012 | 55 | 138 | 10.0 | 22.0 | 0.00 | 0.00 | 0.00 | 85 | 1009.0 |
| 20260507032515 | 55 | 142 | 11.0 | 19.0 | 0.00 | 0.00 | 0.00 | 85 | 1009.0 |
| 20260507032012 | 56 | 135 | 8.0 | 18.0 | 0.00 | 0.00 | 0.00 | 84 | 1010.0 |
| 20260507031514 | 56 | 149 | 8.0 | 18.0 | 0.00 | 0.00 | 0.00 | 83 | 1010.0 |
| 20260507031012 | 56 | 168 | 9.0 | 16.0 | 0.00 | 0.00 | 0.00 | 83 | 1010.0 |
| 20260507030512 | 56 | 123 | 6.0 | 22.0 | 0.00 | 0.00 | 0.00 | 83 | 1010.0 |
| 20260507030012 | 56 | 138 | 12.0 | 14.0 | 0.00 | 0.00 | 0.00 | 83 | 1010.0 |
| 20260507025511 | 56 | 162 | 10.0 | 19.0 | 0.00 | 0.00 | 0.00 | 82 | 1010.0 |
| 20260507025013 | 56 | 159 | 11.0 | 21.0 | 0.00 | 0.00 | 0.00 | 82 | 1010.0 |
| 20260507024511 | 56 | 137 | 5.0 | 19.0 | 0.00 | 0.00 | 0.00 | 82 | 1010.0 |
| 20260507024012 | 57 | 159 | 13.0 | 21.0 | 0.00 | 0.00 | 0.00 | 81 | 1010.0 |
| 20260507023513 | 57 | 134 | 11.0 | 19.0 | 0.00 | 0.00 | 0.00 | 81 | 1011.0 |
| 20260507023011 | 57 | 182 | 10.0 | 24.0 | 0.00 | 0.00 | 0.00 | 81 | 1011.0 |
| 20260507022512 | 57 | 150 | 8.0 | 21.0 | 0.00 | 0.00 | 0.00 | 81 | 1011.0 |
| 20260507022012 | 57 | 164 | 18.0 | 25.0 | 0.00 | 0.00 | 0.00 | 81 | 1011.0 |
| 20260507021512 | 57 | 164 | 13.0 | 19.0 | 0.00 | 0.00 | 0.00 | 81 | 1012.0 |
| 20260507021011 | 57 | 146 | 10.0 | 25.0 | 0.00 | 0.00 | 0.00 | 80 | 1011.0 |
| 20260507020513 | 57 | 166 | 17.0 | 20.0 | 0.00 | 0.00 | 0.00 | 80 | 1011.0 |
| 20260507020013 | 57 | 151 | 14.0 | 22.0 | 0.00 | 0.00 | 0.00 | 80 | 1012.0 |
| 20260507015512 | 58 | 158 | 14.0 | 22.0 | 0.00 | 0.00 | 0.00 | 80 | 1012.0 |
| 20260507015012 | 58 | 165 | 12.0 | 20.0 | 0.00 | 0.00 | 0.00 | 79 | 1012.0 |
| 20260507014512 | 58 | 147 | 16.0 | 20.0 | 0.00 | 0.00 | 0.00 | 79 | 1012.0 |
| 20260507014011 | 58 | 146 | 9.0 | 19.0 | 0.00 | 0.00 | 0.00 | 78 | 1012.0 |
| 20260507013511 | 58 | 163 | 17.0 | 20.0 | 0.00 | 0.00 | 0.00 | 78 | 1012.0 |
| 20260507013012 | 58 | 140 | 14.0 | 20.0 | 0.00 | 0.00 | 0.00 | 78 | 1012.0 |
| 20260507012512 | 58 | 154 | 11.0 | 23.0 | 0.00 | 0.00 | 0.00 | 78 | 1012.0 |
| 20260507012012 | 58 | 150 | 10.0 | 19.0 | 0.00 | 0.00 | 0.00 | 78 | 1012.0 |
| 20260507011511 | 58 | 154 | 14.0 | 25.0 | 0.00 | 0.00 | 0.00 | 78 | 1012.0 |
| 20260507011012 | 58 | 137 | 8.0 | 18.0 | 0.00 | 0.00 | 0.00 | 77 | 1012.0 |
| 20260507010512 | 58 | 172 | 10.0 | 19.0 | 0.00 | 0.00 | 0.00 | 77 | 1012.0 |
| 20260507010013 | 59 | 199 | 4.0 | 17.0 | 0.00 | 0.00 | 0.00 | 76 | 1012.0 |
| 20260507005511 | 59 | 151 | 10.0 | 22.0 | 0.00 | 0.00 | 0.00 | 76 | 1012.0 |
| 20260507005012 | 59 | 172 | 14.0 | 22.0 | 0.00 | 0.00 | 0.00 | 75 | 1012.0 |
| 20260507004511 | 59 | 158 | 9.0 | 18.0 | 0.00 | 0.00 | 0.00 | 74 | 1012.0 |
| 20260507004011 | 60 | 152 | 14.0 | 26.0 | 0.00 | 0.00 | 0.00 | 74 | 1012.0 |
| 20260507003511 | 59 | 150 | 11.0 | 22.0 | 0.00 | 0.00 | 0.00 | 75 | 1012.0 |
| 20260507003011 | 59 | 144 | 10.0 | 25.0 | 0.00 | 0.00 | 0.00 | 75 | 1012.0 |
| 20260507002511 | 59 | 139 | 11.0 | 24.0 | 0.00 | 0.00 | 0.00 | 75 | 1012.0 |
| 20260507002012 | 59 | 141 | 11.0 | 18.0 | 0.00 | 0.00 | 0.00 | 76 | 1012.0 |
| 20260507001513 | 59 | 142 | 18.0 | 20.0 | 0.00 | 0.00 | 0.00 | 76 | 1012.0 |
| 20260507001011 | 59 | 156 | 11.0 | 21.0 | 0.00 | 0.00 | 0.00 | 76 | 1012.0 |
| 20260507000512 | 59 | 174 | 9.0 | 18.0 | 0.00 | 0.00 | 0.00 | 75 | 1012.0 |
| 20260507000011 | 59 | 131 | 7.0 | 18.0 | 0.00 | 0.00 | 0.00 | 74 | 1012.0 |
| 20260506235512 | 60 | 148 | 7.0 | 18.0 | 0.00 | 0.00 | 0.00 | 73 | 1012.0 |
| 20260506235011 | 60 | 188 | 12.0 | 25.0 | 0.00 | 0.00 | 0.00 | 72 | 1012.0 |
| 20260506234514 | 61 | 174 | 14.0 | 22.0 | 0.00 | 0.00 | 0.00 | 72 | 1012.0 |
| 20260506234011 | 61 | 160 | 13.0 | 28.0 | 0.00 | 0.00 | 0.00 | 72 | 1012.0 |
| 20260506233511 | 61 | 158 | 12.0 | 22.0 | 0.00 | 0.00 | 0.00 | 72 | 1012.0 |
| 20260506233014 | 61 | 163 | 11.0 | 23.0 | 0.00 | 0.00 | 0.00 | 72 | 1011.0 |
| 20260506232511 | 61 | 166 | 10.0 | 25.0 | 0.00 | 0.00 | 0.00 | 72 | 1012.0 |
| 20260506232012 | 61 | 164 | 5.0 | 21.0 | 0.00 | 0.00 | 0.00 | 72 | 1012.0 |
| 20260506231511 | 61 | 172 | 12.0 | 22.0 | 0.00 | 0.00 | 0.00 | 72 | 1012.0 |
| 20260506231012 | 61 | 171 | 9.0 | 20.0 | 0.00 | 0.00 | 0.00 | 72 | 1011.0 |
| 20260506230512 | 61 | 139 | 10.0 | 22.0 | 0.00 | 0.00 | 0.00 | 72 | 1011.0 |
| 20260506230011 | 62 | 149 | 14.0 | 21.0 | 0.00 | 0.00 | 0.00 | 71 | 1011.0 |
| 20260506225511 | 62 | 159 | 10.0 | 27.0 | 0.00 | 0.00 | 0.00 | 71 | 1011.0 |
| 20260506225012 | 62 | 160 | 11.0 | 25.0 | 0.00 | 0.00 | 0.00 | 71 | 1011.0 |
| 20260506224514 | 62 | 160 | 9.0 | 22.0 | 0.00 | 0.00 | 0.00 | 71 | 1012.0 |
| 20260506224011 | 62 | 164 | 12.0 | 21.0 | 0.00 | 0.00 | 0.00 | 72 | 1011.0 |
| 20260506223511 | 62 | 156 | 6.0 | 19.0 | 0.00 | 0.00 | 0.00 | 72 | 1011.0 |
| 20260506223012 | 62 | 216 | 5.0 | 18.0 | 0.00 | 0.00 | 0.00 | 72 | 1012.0 |
| 20260506222511 | 61 | 212 | 11.0 | 15.0 | 0.00 | 0.00 | 0.00 | 72 | 1011.0 |
| 20260506222011 | 61 | 178 | 7.0 | 19.0 | 0.00 | 0.00 | 0.00 | 71 | 1012.0 |
| 20260506221511 | 61 | 150 | 8.0 | 15.0 | 0.00 | 0.00 | 0.00 | 72 | 1012.0 |
| 20260506221011 | 61 | 124 | 3.0 | 19.0 | 0.00 | 0.00 | 0.00 | 71 | 1012.0 |
| 20260506220511 | 61 | 186 | 8.0 | 14.0 | 0.00 | 0.00 | 0.00 | 71 | 1012.0 |
| 20260506220012 | 61 | 221 | 9.0 | 24.0 | 0.00 | 0.00 | 0.00 | 71 | 1012.0 |
| 20260506215511 | 61 | 211 | 14.0 | 19.0 | 0.00 | 0.00 | 0.00 | 71 | 1012.0 |
| 20260506215012 | 62 | 109 | 5.0 | 13.0 | 0.00 | 0.00 | 0.00 | 70 | 1012.0 |
| 20260506214515 | 62 | 200 | 9.0 | 18.0 | 0.00 | 0.00 | 0.00 | 70 | 1012.0 |
| 20260506214012 | 62 | 183 | 9.0 | 19.0 | 0.00 | 0.00 | 0.00 | 70 | 1012.0 |
| 20260506213512 | 62 | 196 | 7.0 | 17.0 | 0.00 | 0.00 | 0.00 | 69 | 1012.0 |
| 20260506213011 | 62 | 189 | 9.0 | 15.0 | 0.00 | 0.00 | 0.00 | 69 | 1011.0 |
| 20260506212511 | 63 | 222 | 13.0 | 28.0 | 0.00 | 0.00 | 0.00 | 69 | 1012.0 |
| 20260506212012 | 63 | 193 | 12.0 | 17.0 | 0.00 | 0.00 | 0.00 | 70 | 1012.0 |
| 20260506211512 | 63 | 173 | 6.0 | 19.0 | 0.00 | 0.00 | 0.00 | 69 | 1012.0 |
| 20260506211011 | 63 | 185 | 7.0 | 16.0 | 0.00 | 0.00 | 0.00 | 69 | 1012.0 |
| 20260506210511 | 63 | 135 | 8.0 | 18.0 | 0.00 | 0.00 | 0.00 | 69 | 1011.0 |
| 20260506210012 | 63 | 215 | 9.0 | 15.0 | 0.00 | 0.00 | 0.00 | 69 | 1011.0 |
| 20260506205511 | 63 | 228 | 7.0 | 16.0 | 0.00 | 0.00 | 0.00 | 68 | 1011.0 |
| 20260506205012 | 64 | 175 | 4.0 | 13.0 | 0.00 | 0.00 | 0.00 | 68 | 1011.0 |
| 20260506204511 | 64 | 154 | 6.0 | 17.0 | 0.00 | 0.00 | 0.00 | 68 | 1011.0 |
| 20260506204011 | 64 | 197 | 9.0 | 17.0 | 0.00 | 0.00 | 0.00 | 68 | 1011.0 |
| 20260506203512 | 64 | 222 | 9.0 | 14.0 | 0.00 | 0.00 | 0.00 | 68 | 1011.0 |
| 20260506203011 | 64 | 196 | 7.0 | 15.0 | 0.00 | 0.00 | 0.00 | 68 | 1011.0 |
| 20260506202511 | 64 | 220 | 5.0 | 17.0 | 0.00 | 0.00 | 0.00 | 68 | 1011.0 |
| 20260506202012 | 64 | 181 | 5.0 | 14.0 | 0.00 | 0.00 | 0.00 | 68 | 1011.0 |
| 20260506201512 | 65 | 150 | 11.0 | 16.0 | 0.00 | 0.00 | 0.00 | 67 | 1011.0 |
| 20260506201011 | 65 | 198 | 7.0 | 15.0 | 0.00 | 0.00 | 0.00 | 67 | 1011.0 |
| 20260506200513 | 65 | 222 | 7.0 | 18.0 | 0.00 | 0.00 | 0.00 | 68 | 1011.0 |
| 20260506200012 | 65 | 172 | 18.0 | 20.0 | 0.00 | 0.00 | 0.00 | 68 | 1011.0 |
| 20260506195513 | 64 | 165 | 5.0 | 21.0 | 0.00 | 0.00 | 0.00 | 69 | 1011.0 |
| 20260506195012 | 64 | 221 | 8.0 | 16.0 | 0.00 | 0.00 | 0.00 | 70 | 1011.0 |
| 20260506194511 | 64 | 169 | 4.0 | 17.0 | 0.00 | 0.00 | 0.00 | 70 | 1011.0 |
| 20260506194012 | 64 | 206 | 9.0 | 20.0 | 0.00 | 0.00 | 0.00 | 70 | 1011.0 |
| 20260506193511 | 63 | 223 | 6.0 | 17.0 | 0.00 | 0.00 | 0.00 | 70 | 1011.0 |
| 20260506193012 | 63 | 234 | 8.0 | 20.0 | 0.00 | 0.00 | 0.00 | 71 | 1011.0 |
| 20260506192512 | 63 | 196 | 9.0 | 13.0 | 0.00 | 0.00 | 0.00 | 70 | 1012.0 |
| 20260506192013 | 63 | 179 | 6.0 | 10.0 | 0.00 | 0.00 | 0.00 | 71 | 1011.0 |
| 20260506191513 | 64 | 239 | 6.0 | 13.0 | 0.00 | 0.00 | 0.00 | 70 | 1012.0 |
| 20260506191014 | 64 | 147 | 10.0 | 20.0 | 0.00 | 0.00 | 0.00 | 71 | 1012.0 |
| 20260506190512 | 64 | 154 | 10.0 | 14.0 | 0.00 | 0.00 | 0.00 | 72 | 1011.0 |
| 20260506190012 | 64 | 226 | 6.0 | 15.0 | 0.00 | 0.00 | 0.00 | 73 | 1012.0 |
| 20260506185512 | 64 | 111 | 6.0 | 24.0 | 0.00 | 0.00 | 0.00 | 73 | 1012.0 |
| 20260506185012 | 64 | 168 | 10.0 | 18.0 | 0.00 | 0.00 | 0.00 | 73 | 1012.0 |
| 20260506184512 | 64 | 161 | 9.0 | 17.0 | 0.00 | 0.00 | 0.00 | 74 | 1012.0 |
| 20260506184013 | 63 | 175 | 9.0 | 16.0 | 0.00 | 0.00 | 0.00 | 74 | 1012.0 |
| 20260506183511 | 63 | 203 | 9.0 | 16.0 | 0.00 | 0.00 | 0.00 | 76 | 1012.0 |
| 20260506183012 | 62 | 173 | 10.0 | 26.0 | 0.00 | 0.00 | 0.00 | 75 | 1012.0 |
| 20260506182512 | 62 | 204 | 10.0 | 16.0 | 0.00 | 0.00 | 0.00 | 75 | 1012.0 |
| 20260506182012 | 63 | 181 | 7.0 | 19.0 | 0.00 | 0.00 | 0.00 | 74 | 1012.0 |
| 20260506181511 | 63 | 210 | 6.0 | 11.0 | 0.00 | 0.00 | 0.00 | 74 | 1012.0 |
| 20260506181012 | 63 | 220 | 10.0 | 14.0 | 0.00 | 0.00 | 0.00 | 74 | 1012.0 |
| 20260506180512 | 63 | 212 | 10.0 | 26.0 | 0.00 | 0.00 | 0.00 | 75 | 1012.0 |
| 20260506180011 | 62 | 207 | 11.0 | 18.0 | 0.00 | 0.00 | 0.00 | 75 | 1012.0 |
| 20260506175512 | 62 | 201 | 9.0 | 20.0 | 0.00 | 0.00 | 0.00 | 76 | 1012.0 |
| 20260506175012 | 62 | 196 | 9.0 | 18.0 | 0.00 | 0.00 | 0.00 | 75 | 1012.0 |
| 20260506174512 | 63 | 221 | 17.0 | 22.0 | 0.00 | 0.00 | 0.00 | 75 | 1012.0 |
| 20260506174012 | 63 | 185 | 7.0 | 26.0 | 0.00 | 0.00 | 0.00 | 74 | 1012.0 |
| 20260506173512 | 63 | 172 | 9.0 | 30.0 | 0.00 | 0.00 | 0.00 | 74 | 1012.0 |
| 20260506173012 | 64 | 188 | 12.0 | 19.0 | 0.00 | 0.00 | 0.00 | 73 | 1012.0 |
| 20260506172512 | 63 | 190 | 11.0 | 18.0 | 0.00 | 0.00 | 0.00 | 74 | 1012.0 |
| 20260506172018 | 63 | 233 | 11.0 | 22.0 | 0.00 | 0.00 | 0.00 | 75 | 1012.0 |
| 20260506171514 | 62 | 249 | 10.0 | 20.0 | 0.00 | 0.00 | 0.00 | 74 | 1012.0 |
| 20260506171011 | 63 | 138 | 5.0 | 22.0 | 0.00 | 0.00 | 0.00 | 73 | 1012.0 |
| 20260506170513 | 64 | 205 | 9.0 | 16.0 | 0.00 | 0.00 | 0.00 | 71 | 1012.0 |
| 20260506170011 | 64 | 169 | 7.0 | 21.0 | 0.00 | 0.00 | 0.00 | 72 | 1012.0 |
| 20260506165511 | 63 | 150 | 9.0 | 18.0 | 0.00 | 0.00 | 0.00 | 73 | 1012.0 |
| 20260506165012 | 62 | 164 | 9.0 | 18.0 | 0.00 | 0.00 | 0.00 | 74 | 1012.0 |
| 20260506164512 | 62 | 155 | 7.0 | 26.0 | 0.00 | 0.00 | 0.00 | 74 | 1012.0 |